Location: G�ppingen
(48.7000°N, 9.6670°E)
Time: 12:47:05
(UTC+02:00)

OTV 5 (USA 277) - Visible Passes

Search period start: 20 April 2019 00:00
Search period end: 30 April 2019 00:00
Orbit: 310 x 325 km, 54.5° (Epoch: 16 April)

Date Brightness Start Highest point End Pass type
(mag) Time Alt. Az. Time Alt. Az. Time Alt. Az.
20 Apr ? 04:17:42 27° NNW 04:18:44 41° NNE 04:21:19 10° E visible
21 Apr ? 04:32:28 31° NW 04:33:34 82° NNE 04:36:14 10° ESE visible
22 Apr ? 04:47:45 36° WSW 04:48:16 42° SW 04:50:49 10° SE visible
23 Apr ? 05:03:49 16° SSW 05:03:49 16° SSW 05:04:50 10° S visible
23 Apr ? 21:23:38 10° S 21:25:26 16° SE 21:25:28 16° SE visible
24 Apr ? 21:37:28 10° SSW 21:40:00 35° SE 21:41:53 15° E visible
24 Apr ? 23:11:45 10° W 23:12:52 20° WNW 23:12:52 20° WNW visible
25 Apr ? 21:51:57 10° WSW 21:54:41 84° SE 21:57:24 10° ENE visible
25 Apr ? 23:26:53 10° WNW 23:28:24 22° NW 23:28:24 22° NW visible
26 Apr ? 22:06:50 10° W 22:09:29 48° NNW 22:12:08 10° NE visible
26 Apr ? 23:41:59 10° WNW 23:43:20 19° NNW 23:43:20 19° NNW visible
27 Apr ? 22:21:54 10° W 22:24:23 30° NNW 22:26:51 10° NE visible
27 Apr ? 23:56:57 10° NW 23:57:53 16° NW 23:57:53 16° NW visible
28 Apr ? 22:37:02 10° WNW 22:39:20 24° N 22:41:21 12° NE visible
29 Apr ? 00:11:46 10° NW 00:12:14 13° NW 00:12:14 13° NW visible
29 Apr ? 21:16:56 10° W 21:19:30 37° NNW 21:22:05 10° NE visible
29 Apr ? 22:52:04 10° NW 22:54:20 22° N 22:55:34 17° NE visible
